Weather History for Glendive, MT

Change the Weather History Date:

Friday, October 5, 2012

  Actual Average Record
Temperature  
Mean Temperature 33 °F -  
Max Temperature 42 °F 61 °F 82 °F (2011)
Min Temperature 24 °F 35 °F 15 °F (2000)
Degree Days  
Heating Degree Days 32    
Moisture  
Dew Point 22 °F    
Average Humidity 67    
Maximum Humidity 93    
Minimum Humidity 42    
Precipitation  
Precipitation 0.00 in - - ()
Sea Level Pressure  
Sea Level Pressure 30.39 in    
Wind  
Wind Speed 6 mph (NNW)    
Max Wind Speed 16 mph    
Max Gust Speed 22 mph    
Visibility 10 miles    
Events      
Averages and records for this station are not official NWS values.
T = Trace of Precipitation, MM = Missing Value Source: NWS Daily Summary

Daily Weather History Graph

Daily Weather History Graph

Search for Another Location

Airport:

Trip Planner

Search our weather history database for the weather conditions in past years. The results will help you decide how hot, cold, wet, or windy it might be!

Date:

Astronomy

Oct. 05, 2012 Rise Set
Actual Time 7:04 AM MDT 6:29 PM MDT
Civil Twilight 6:33 AM MDT 7:00 PM MDT
Nautical Twilight 5:58 AM MDT 7:35 PM MDT
Astronomical Twilight 5:22 AM MDT 8:11 PM MDT
Moon 9:36 PM MDT (10/5) 12:32 PM MDT (10/5)
Length of Visible Light 12h 26m
Length of Day
11h 25m
Waning Gibbous, 73% of the Moon is Illuminated
Oct 5
Waning Gibbous
Oct 8
Last Quarter
Oct 15
New
Oct 21
First Quarter
Oct 29
Full

Hourly Weather History & Observations

Time (MDT) Temp. Windchill Dew Point Humidity Pressure Visibility Wind Dir Wind Speed Gust Speed Precip Events Conditions
12:15 AM 28.4 °F 22.2 °F 26.6 °F 93% 30.38 in 10.0 mi NW 5.8 mph - N/A   Scattered Clouds
12:35 AM 28.4 °F 22.2 °F 24.8 °F 86% 30.38 in 10.0 mi NNW 5.8 mph - N/A   Partly Cloudy
12:55 AM 28.4 °F 22.2 °F 24.8 °F 86% 30.37 in 10.0 mi NNW 5.8 mph - N/A   Clear
1:15 AM 28.4 °F 21.2 °F 24.8 °F 86% 30.37 in 10.0 mi North 6.9 mph - N/A   Clear
1:35 AM 30.2 °F 23.4 °F 23.0 °F 75% 30.37 in 10.0 mi North 6.9 mph - N/A   Clear
1:55 AM 30.2 °F - 24.8 °F 80% 30.37 in 10.0 mi North - - N/A   Scattered Clouds
2:15 AM 28.4 °F 23.3 °F 24.8 °F 86% 30.37 in 10.0 mi WNW 4.6 mph - N/A   Mostly Cloudy
2:35 AM 30.2 °F 25.4 °F 24.8 °F 80% 30.37 in 10.0 mi WNW 4.6 mph - N/A   Overcast
2:55 AM 30.2 °F 24.3 °F 26.6 °F 86% 30.37 in 10.0 mi NW 5.8 mph - N/A   Overcast
3:15 AM 30.2 °F - 26.6 °F 86% 30.37 in 10.0 mi Calm Calm - N/A   Overcast
3:35 AM 30.2 °F 25.4 °F 24.8 °F 80% 30.37 in 10.0 mi WSW 4.6 mph - N/A   Mostly Cloudy
3:55 AM 30.2 °F 24.3 °F 24.8 °F 80% 30.37 in 10.0 mi West 5.8 mph - N/A   Mostly Cloudy
4:15 AM 30.2 °F 24.3 °F 26.6 °F 86% 30.37 in 10.0 mi West 5.8 mph - N/A   Mostly Cloudy
4:36 AM 30.2 °F 25.4 °F 26.6 °F 86% 30.37 in 10.0 mi North 4.6 mph - N/A   Mostly Cloudy
4:55 AM 28.4 °F 22.2 °F 24.8 °F 86% 30.37 in 10.0 mi NNE 5.8 mph - N/A   Overcast
5:15 AM 30.2 °F 24.3 °F 24.8 °F 80% 30.37 in 10.0 mi NNW 5.8 mph - N/A   Overcast
5:35 AM 30.2 °F 25.4 °F 26.6 °F 86% 30.37 in 10.0 mi North 4.6 mph - N/A   Overcast
5:55 AM 30.2 °F 25.4 °F 24.8 °F 80% 30.37 in 10.0 mi North 4.6 mph - N/A   Overcast
6:15 AM 30.2 °F 24.3 °F 24.8 °F 80% 30.37 in 10.0 mi NNW 5.8 mph - N/A   Overcast
6:35 AM 30.2 °F 24.3 °F 24.8 °F 80% 30.37 in 10.0 mi WNW 5.8 mph - N/A   Mostly Cloudy
6:55 AM 28.4 °F 22.2 °F 24.8 °F 86% 30.38 in 10.0 mi NE 5.8 mph - N/A   Overcast
7:15 AM 28.4 °F - 24.8 °F 86% 30.39 in 10.0 mi Calm Calm - N/A   Scattered Clouds
7:35 AM 28.4 °F - 24.8 °F 86% 30.39 in 10.0 mi Calm Calm - N/A   Clear
7:55 AM 30.2 °F 26.7 °F 24.8 °F 80% 30.40 in 10.0 mi NNE 3.5 mph - N/A   Partly Cloudy
8:15 AM 30.2 °F 26.7 °F 24.8 °F 80% 30.40 in 10.0 mi NNE 3.5 mph - N/A   Partly Cloudy
8:35 AM 32.0 °F 27.5 °F 23.0 °F 69% 30.41 in 10.0 mi North 4.6 mph - N/A   Mostly Cloudy
8:55 AM 32.0 °F - 23.0 °F 69% 30.41 in 10.0 mi Calm Calm - N/A   Overcast
9:15 AM 32.0 °F - 21.2 °F 64% 30.42 in 10.0 mi Calm Calm - N/A   Overcast
9:35 AM 33.8 °F 30.8 °F 21.2 °F 60% 30.42 in 10.0 mi North 3.5 mph - N/A   Overcast
9:55 AM 33.8 °F 28.6 °F 23.0 °F 65% 30.42 in 10.0 mi North 5.8 mph - N/A   Overcast
10:15 AM 35.6 °F 29.2 °F 23.0 °F 60% 30.42 in 10.0 mi NNW 8.1 mph - N/A   Overcast
10:35 AM 35.6 °F 29.9 °F 21.2 °F 56% 30.42 in 10.0 mi North 6.9 mph - N/A   Mostly Cloudy
10:55 AM 35.6 °F 32.8 °F 21.2 °F 56% 30.41 in 10.0 mi North 3.5 mph - N/A   Mostly Cloudy
11:15 AM 37.4 °F 33.8 °F 23.0 °F 56% 30.41 in 10.0 mi NNW 4.6 mph - N/A   Partly Cloudy
11:35 AM 39.2 °F 33.6 °F 24.8 °F 56% 30.41 in 10.0 mi NNW 8.1 mph - N/A   Scattered Clouds
11:55 AM 39.2 °F 33.0 °F 23.0 °F 52% 30.41 in 10.0 mi North 9.2 mph - N/A   Mostly Cloudy
12:35 PM 39.2 °F 33.6 °F 23.0 °F 52% 30.41 in 10.0 mi NNW 8.1 mph - N/A   Mostly Cloudy
12:55 PM 41.0 °F 34.3 °F 21.2 °F 45% 30.40 in 10.0 mi NW 11.5 mph - N/A   Mostly Cloudy
1:35 PM 41.0 °F 33.1 °F 19.4 °F 42% 30.39 in 10.0 mi NNW 15.0 mph 18.4 mph N/A   Mostly Cloudy
1:55 PM 42.8 °F 36.2 °F 21.2 °F 42% 30.38 in 10.0 mi NW 12.7 mph - N/A   Mostly Cloudy
2:15 PM 41.0 °F 34.3 °F 21.2 °F 45% 30.38 in 10.0 mi NNW 11.5 mph 18.4 mph N/A   Scattered Clouds
2:35 PM 42.8 °F 36.6 °F 21.2 °F 42% 30.37 in 10.0 mi NNW 11.5 mph 19.6 mph N/A   Mostly Cloudy
2:55 PM 41.0 °F 32.8 °F 21.2 °F 45% 30.37 in 10.0 mi North 16.1 mph 21.9 mph N/A   Overcast
3:15 PM 41.0 °F 34.3 °F 21.2 °F 45% 30.37 in 10.0 mi North 11.5 mph - N/A   Mostly Cloudy
3:35 PM 41.0 °F 34.7 °F 21.2 °F 45% 30.37 in 10.0 mi North 10.4 mph 20.7 mph N/A   Scattered Clouds
3:55 PM 41.0 °F 33.1 °F 21.2 °F 45% 30.37 in 10.0 mi North 15.0 mph 18.4 mph N/A   Partly Cloudy
4:15 PM 41.0 °F 33.9 °F 21.2 °F 45% 30.37 in 10.0 mi NNW 12.7 mph 18.4 mph N/A   Clear
4:35 PM 39.2 °F 30.8 °F 21.2 °F 49% 30.37 in 10.0 mi North 15.0 mph 18.4 mph N/A   Clear
4:55 PM 39.2 °F 31.2 °F 19.4 °F 45% 30.38 in 10.0 mi North 13.8 mph - N/A   Clear
5:15 PM 39.2 °F 30.8 °F 19.4 °F 45% 30.38 in 10.0 mi NNW 15.0 mph - N/A   Clear
5:35 PM 39.2 °F 32.5 °F 19.4 °F 45% 30.39 in 10.0 mi North 10.4 mph - N/A   Clear
5:55 PM 37.4 °F 29.8 °F 19.4 °F 48% 30.39 in 10.0 mi North 11.5 mph - N/A   Clear
6:15 PM 37.4 °F 30.8 °F 19.4 °F 48% 30.39 in 10.0 mi North 9.2 mph - N/A   Clear
6:55 PM 33.8 °F 28.6 °F 19.4 °F 56% 30.40 in 10.0 mi North 5.8 mph - N/A   Clear
7:15 PM 30.2 °F 25.4 °F 19.4 °F 64% 30.40 in 10.0 mi NW 4.6 mph - N/A   Clear
7:35 PM 30.2 °F 23.4 °F 19.4 °F 64% 30.41 in 10.0 mi NW 6.9 mph - N/A   Clear
7:55 PM 28.4 °F 20.4 °F 19.4 °F 69% 30.41 in 10.0 mi NW 8.1 mph - N/A   Clear
8:35 PM 26.6 °F 18.2 °F 19.4 °F 74% 30.41 in 10.0 mi NW 8.1 mph - N/A   Clear
8:55 PM 26.6 °F 18.2 °F 19.4 °F 74% 30.41 in 10.0 mi NW 8.1 mph - N/A   Clear
9:15 PM 26.6 °F 16.8 °F 19.4 °F 74% 30.41 in 10.0 mi NNW 10.4 mph - N/A   Partly Cloudy
9:35 PM 28.4 °F 19.7 °F 19.4 °F 69% 30.41 in 10.0 mi NNW 9.2 mph - N/A   Clear
9:55 PM 28.4 °F 21.2 °F 19.4 °F 69% 30.41 in 10.0 mi NNW 6.9 mph - N/A   Clear
10:15 PM 28.4 °F 21.2 °F 19.4 °F 69% 30.41 in 10.0 mi North 6.9 mph - N/A   Clear
10:55 PM 26.6 °F 19.1 °F 19.4 °F 74% 30.42 in 10.0 mi North 6.9 mph - N/A   Clear
11:15 PM 26.6 °F 20.0 °F 17.6 °F 69% 30.41 in 10.0 mi North 5.8 mph - N/A   Clear
11:35 PM 24.8 °F 16.9 °F 19.4 °F 80% 30.41 in 10.0 mi North 6.9 mph - N/A   Clear
11:55 PM 26.6 °F 20.0 °F 17.6 °F 69% 30.41 in 10.0 mi NNW 5.8 mph - N/A   Clear